CW8931 Weather Reports


time (UTC)temp
F
wind
direction
speed
knots
gust
knots
rain 1hr
in
rain 24hr
in
rain mn
in
humidity
%
barometer
mb
20260502170511 70 0.0 0.0 0.00 1.96 0.00 53 1020.9
20260502164007 69 0.0 0.0 0.00 1.97 0.00 57 1021.0
20260502163505 69 0.0 0.0 0.00 1.97 0.00 58 1020.9
20260502163034 69 0.0 0.0 0.00 1.97 0.00 58 1020.9
20260502162508 68 0.0 0.0 0.00 1.98 0.00 58 1021.0
20260502162016 68 0.0 0.0 0.00 1.98 0.00 58 1020.9
20260502161008 68 0.0 0.0 0.00 2.01 0.00 61 1020.9
20260502152002 65 0.0 0.0 0.00 2.21 0.00 64 1020.6
20260502151504 65 0.0 0.0 0.00 2.21 0.00 66 1020.5
20260502151003 64 0.0 0.0 0.00 2.21 0.00 66 1020.6
20260502150502 64 0.0 0.0 0.00 2.21 0.00 67 1020.7
20260502130508 55 0.0 0.0 0.00 2.46 0.00 86 1019.6
20260502123503 53 0.0 0.0 0.00 2.55 0.00 88 1018.9
20260502123009 53 0.0 0.0 0.00 2.55 0.00 88 1018.8
20260502122505 53 0.0 0.0 0.00 2.55 0.00 88 1018.7
20260502122008 52 0.0 0.0 0.00 2.55 0.00 88 1018.7
20260502121512 52 0.0 0.0 0.00 2.55 0.00 88 1018.7
20260502121007 52 0.0 0.0 0.00 2.56 0.00 88 1018.6
20260502120510 52 0.0 0.0 0.00 2.56 0.00 88 1018.6
20260502115507 52 0.0 0.0 0.00 2.56 0.00 87 1018.5
20260502115008 52 0.0 0.0 0.00 2.56 0.00 87 1018.4
20260502114520 52 0.0 0.0 0.00 2.56 0.00 87 1018.3
20260502114011 52 0.0 0.0 0.00 2.56 0.00 87 1018.4
20260502113506 52 0.0 0.0 0.00 2.56 0.00 87 1018.3
20260502112502 53 0.0 0.0 0.00 2.56 0.00 87 1018.4
20260502112003 53 0.0 0.0 0.00 2.56 0.00 86 1018.4
20260502111507 53 0.0 0.0 0.00 2.56 0.00 86 1018.3
20260502111003 53 0.0 0.0 0.00 2.56 0.00 86 1018.3
20260502110508 53 0.0 0.0 0.00 2.56 0.00 86 1018.1
20260502110016 53 0.0 0.0 0.00 2.56 0.00 86 1018.0
20260502105509 53 0.0 0.0 0.00 2.57 0.00 86 1018.0
20260502105008 53 0.0 0.0 0.00 2.57 0.00 85 1017.8
20260502104519 53 0.0 0.0 0.00 2.57 0.00 85 1017.9
20260502104007 53 0.0 0.0 0.00 2.57 0.00 85 1017.9
20260502103511 54 0.0 0.0 0.00 2.57 0.00 85 1017.8
20260502103022 54 0.0 0.0 0.00 2.57 0.00 85 1017.8
20260502102510 54 0.0 0.0 0.00 2.58 0.00 84 1017.8
20260502102012 54 0.0 0.0 0.00 2.58 0.00 84 1017.8
20260502101510 54 0.0 0.0 0.00 2.58 0.00 84 1017.6
20260502101006 54 0.0 0.0 0.00 2.58 0.00 84 1017.6
20260502100503 54 0.0 0.0 0.00 2.59 0.00 84 1017.5
20260502091525 55 0.0 0.0 0.00 2.67 0.00 83 1016.4
20260502091009 55 0.0 0.0 0.00 2.71 0.00 83 1016.3
20260502090509 55 0.0 0.0 0.00 2.95 0.00 83 1016.2
20260502071521 55 0.0 0.0 0.00 3.55 0.00 87 1016.0
20260502070517 55 0.0 0.0 0.00 3.57 0.00 87 1016.0
20260502070022 55 0.0 0.0 0.00 3.58 0.00 87 1016.1
20260502065510 55 0.0 0.0 0.00 3.58 0.00 87 1016.2
20260502065016 55 0.0 0.0 0.00 3.59 0.00 87 1016.2
20260502064529 55 0.0 0.0 0.00 3.60 0.00 87 1016.2
20260502064010 55 0.0 0.0 0.00 3.60 0.00 87 1016.2
20260502063510 55 0.0 0.0 0.00 3.60 0.00 87 1016.2
20260502063024 55 0.0 0.0 0.00 3.61 0.00 87 1016.2
20260502062508 55 0.0 0.0 0.00 3.62 0.00 88 1016.1
20260502062009 55 0.0 0.0 0.00 3.62 0.00 88 1016.0
20260502061521 55 0.0 0.0 0.00 3.62 0.00 88 1015.9
20260502060502 55 0.0 0.0 0.00 3.62 0.00 88 1015.8
20260502060002 55 0.0 0.0 0.00 3.62 0.00 89 1015.8
20260502055503 55 0.0 0.0 0.00 3.62 0.00 89 1015.9
20260502055003 55 0.0 0.0 0.00 3.63 0.00 89 1015.9
20260502054507 55 0.0 0.0 0.00 3.63 0.00 89 1015.8
20260502054003 55 0.0 0.0 0.00 3.63 0.00 90 1015.8
20260502053506 55 0.0 0.0 0.00 3.63 0.00 90 1015.9
20260502053012 55 0.0 0.0 0.00 3.63 0.00 90 1015.9
20260502052504 55 0.0 0.0 0.00 3.64 0.00 90 1015.9
20260502052009 55 0.0 0.0 0.00 3.65 0.00 90 1015.8
20260502051519 55 0.0 0.0 0.00 3.65 0.00 90 1015.7
20260502051005 55 0.0 0.0 0.00 3.66 0.00 90 1015.7
20260502050505 55 0.0 0.0 0.00 3.67 0.00 90 1015.6
20260502050020 55 0.0 0.0 0.00 3.68 0.00 91 1015.7
20260502045511 55 0.0 0.0 0.00 3.68 3.68 91 1015.6
20260502045003 55 0.0 0.0 0.00 3.68 3.68 91 1015.5
20260502044504 55 0.0 0.0 0.00 3.70 3.68 91 1015.3
20260502044002 55 0.0 0.0 0.00 3.78 3.68 91 1015.3
20260502043503 55 0.0 0.0 0.00 3.97 3.68 91 1015.3
20260502043009 55 0.0 0.0 0.00 4.08 3.68 91 1015.3
20260502042504 55 0.0 0.0 0.00 4.08 3.68 91 1015.4
20260502042007 55 0.0 0.0 0.00 4.08 3.68 91 1015.6
20260502041512 55 0.0 0.0 0.00 4.08 3.68 91 1015.7
20260502041006 55 0.0 0.0 0.00 4.08 3.68 91 1015.7
20260502040507 55 0.0 0.0 0.00 4.08 3.68 91 1015.5
20260502040016 55 0.0 0.0 0.00 4.08 3.68 91 1015.5
20260502035508 55 0.0 0.0 0.00 4.08 3.68 91 1015.4
20260502035009 55 0.0 0.0 0.00 4.08 3.68 91 1015.4
20260502034521 55 0.0 0.0 0.00 4.08 3.68 92 1015.5
20260502034008 55 0.0 0.0 0.01 4.08 3.68 92 1015.6
20260502033511 55 0.0 0.0 0.01 4.08 3.68 92 1015.6
20260502033006 55 0.0 0.0 0.01 4.08 3.68 92 1015.5
20260502032504 55 0.0 0.0 0.01 4.08 3.68 92 1015.4
20260502032006 55 0.0 0.0 0.01 4.08 3.68 92 1015.2
20260502031512 56 0.0 0.0 0.01 4.08 3.68 92 1015.0
20260502031005 56 0.0 0.0 0.01 4.08 3.68 92 1015.1
20260502030504 56 0.0 0.0 0.01 4.08 3.68 92 1015.1
20260502030014 56 0.0 0.0 0.01 4.08 3.68 92 1014.9
20260502025513 56 0.0 0.0 0.02 4.08 3.68 92 1014.8
20260502025007 56 0.0 0.0 0.03 4.08 3.68 92 1014.6
20260502024525 56 0.0 0.0 0.03 4.08 3.68 92 1014.5
20260502024008 56 0.0 0.0 0.03 4.07 3.67 92 1014.3
20260502023510 56 0.0 0.0 0.04 4.07 3.67 92 1014.0
20260502023022 56 0.0 0.0 0.06 4.07 3.67 92 1013.9
20260502022510 56 0.0 0.0 0.07 4.07 3.67 92 1014.0
20260502022009 56 0.0 0.0 0.08 4.07 3.67 92 1013.8
20260502021507 57 0.0 0.0 0.09 4.07 3.67 92 1013.8
20260502021003 57 0.0 0.0 0.09 4.07 3.67 92 1013.8
20260502020504 57 0.0 0.0 0.10 4.07 3.67 92 1013.5
20260502020012 57 0.0 0.0 0.11 4.07 3.67 92 1013.2
20260502015510 57 0.0 0.0 0.11 4.06 3.66 92 1013.6
20260502015005 57 0.0 0.0 0.12 4.05 3.65 92 1013.4
20260502014514 57 0.0 0.0 0.14 4.05 3.65 92 1013.3
20260502014014 58 0.0 0.0 0.14 4.04 3.64 92 1013.4
20260502013508 58 0.0 0.0 0.13 4.03 3.63 92 1013.1
20260502013020 58 0.0 0.0 0.11 4.01 3.61 92 1013.2
20260502012508 58 0.0 0.0 0.11 4.00 3.60 92 1013.2
20260502012013 58 0.0 0.0 0.10 3.99 3.59 92 1013.1
20260502011522 58 0.0 0.0 0.11 3.98 3.58 92 1013.1
20260502011008 58 0.0 0.0 0.11 3.98 3.58 92 1013.0
20260502010513 58 0.0 0.0 0.12 3.97 3.57 92 1012.9
20260502010020 58 0.0 0.0 0.13 3.96 3.56 92 1012.7
20260502005506 58 0.0 0.0 0.14 3.95 3.55 92 1012.6
20260502005010 58 0.0 0.0 0.13 3.93 3.53 92 1012.5
20260502004516 58 0.0 0.0 0.13 3.91 3.51 92 1013.0
20260502004010 58 0.0 0.0 0.14 3.90 3.50 92 1013.1
20260502003508 59 0.0 0.0 0.16 3.90 3.50 92 1013.6
20260502003016 59 0.0 0.0 0.19 3.90 3.50 92 1012.8
20260502002508 59 0.0 0.0 0.19 3.89 3.49 92 1012.2
20260502002011 59 0.0 0.0 0.19 3.89 3.49 92 1011.9
20260502001522 59 0.0 0.0 0.17 3.87 3.47 92 1011.8
20260502001012 59 0.0 0.0 0.17 3.87 3.47 92 1011.9
20260502000509 59 0.0 0.0 0.16 3.85 3.45 92 1012.1
20260502000025 59 0.0 0.0 0.15 3.83 3.43 92 1012.1
20260501235511 59 0.0 0.0 0.16 3.81 3.41 92 1011.8
20260501235016 59 0.0 0.0 0.21 3.80 3.40 92 1012.2
20260501234529 59 0.0 0.0 0.23 3.78 3.38 92 1012.1
20260501234003 59 0.0 0.0 0.23 3.76 3.36 92 1012.4
20260501233510 59 0.0 0.0 0.21 3.74 3.34 92 1012.7
20260501233016 59 0.0 0.0 0.18 3.71 3.31 92 1012.4
20260501232509 59 0.0 0.0 0.17 3.70 3.30 92 1012.0
20260501232007 59 0.0 0.0 0.17 3.70 3.30 92 1011.3
20260501231520 59 0.0 0.0 0.17 3.70 3.30 92 1010.6
20260501231008 59 0.0 0.0 0.18 3.70 3.30 92 1010.3
20260501230508 59 0.0 0.0 0.17 3.69 3.29 92 1009.8
20260501230024 60 0.0 0.0 0.16 3.68 3.28 92 1010.2
20260501225511 60 0.0 0.0 0.13 3.65 3.25 92 1011.0
20260501225004 60 0.0 0.0 0.07 3.59 3.19 92 1010.7
20260501224509 60 0.0 0.0 0.03 3.55 3.15 92 1011.1
20260501224006 60 0.0 0.0 0.01 3.53 3.13 92 1011.6
20260501223503 60 0.0 0.0 0.01 3.53 3.13 92 1010.7
20260501223014 60 0.0 0.0 0.01 3.53 3.13 92 1010.0
20260501222507 60 0.0 0.0 0.01 3.53 3.13 92 1009.9
20260501222013 60 0.0 0.0 0.01 3.53 3.13 92 1010.1
20260501221517 60 0.0 0.0 0.02 3.53 3.13 92 1009.9
20260501221008 61 0.0 0.0 0.02 3.52 3.12 92 1009.8
20260501220502 61 0.0 0.0 0.04 3.52 3.12 92 1009.8
20260501220011 61 0.0 0.0 0.04 3.52 3.12 92 1009.9
20260501215504 61 0.0 0.0 0.05 3.52 3.12 92 1010.1
20260501215009 61 0.0 0.0 0.06 3.52 3.12 92 1010.2
20260501214508 61 0.0 0.0 0.07 3.52 3.12 92 1010.3
20260501214003 61 0.0 0.0 0.07 3.52 3.12 93 1010.6
20260501213502 62 0.0 0.0 0.07 3.52 3.12 93 1010.6
20260501213016 61 0.0 0.0 0.08 3.52 3.12 93 1010.7
20260501212503 61 0.0 0.0 0.09 3.52 3.12 93 1010.6
20260501212007 61 0.0 0.0 0.11 3.52 3.12 93 1010.7
20260501211517 61 0.0 0.0 0.13 3.51 3.11 92 1011.0
20260501211010 61 0.0 0.0 0.14 3.50 3.10 93 1010.7
20260501210508 61 0.0 0.0 0.13 3.48 3.08 93 1010.7
20260501210020 61 0.0 0.0 0.15 3.48 3.08 93 1010.6
20260501205508 61 0.0 0.0 0.15 3.47 3.07 92 1010.2
20260501205003 62 0.0 0.0 0.15 3.46 3.06 92 1010.0
20260501204507 62 0.0 0.0 0.14 3.45 3.05 92 1009.7
20260501203506 62 0.0 0.0 0.16 3.45 3.05 92 1009.8
20260501203005 62 0.0 0.0 0.17 3.44 3.04 92 1009.7
20260501202505 62 0.0 0.0 0.17 3.43 3.03 93 1009.6
20260501202007 62 0.0 0.0 0.16 3.41 3.01 93 1009.6
20260501201511 62 0.0 0.0 0.16 3.38 2.98 93 1009.5
20260501201006 62 0.0 0.0 0.18 3.36 2.96 93 1009.5
20260501200507 62 0.0 0.0 0.17 3.35 2.95 93 1009.3
20260501200017 62 0.0 0.0 0.16 3.33 2.93 93 1009.0
20260501195509 62 0.0 0.0 0.18 3.32 2.92 93 1009.0
20260501195007 62 0.0 0.0 0.40 3.31 2.91 93 1009.5
20260501194521 62 0.0 0.0 0.48 3.31 2.91 92 1009.3
20260501194007 62 0.0 0.0 0.48 3.30 2.90 92 1009.3
20260501193508 62 0.0 0.0 0.49 3.29 2.89 92 1009.1
20260501193005 62 0.0 0.0 0.48 3.27 2.87 92 1009.6
20260501192504 62 0.0 0.0 0.47 3.26 2.86 92 1009.5
20260501192005 62 0.0 0.0 0.46 3.25 2.85 92 1009.1
20260501191512 62 0.0 0.0 0.44 3.22 2.82 92 1009.3
20260501191006 62 0.0 0.0 0.42 3.18 2.78 92 1009.5
20260501190509 62 0.0 0.0 0.58 3.18 2.78 92 1009.6
20260501190029 62 0.0 0.0 0.70 3.17 2.77 92 1009.5
20260501185507 62 0.0 0.0 0.68 3.14 2.74 92 1009.6
20260501185007 62 0.0 0.0 0.48 2.91 2.51 92 1009.4
20260501184517 62 0.0 0.0 0.41 2.83 2.43 92 1010.5
20260501184007 62 0.0 0.0 0.41 2.82 2.42 92 1009.4
20260501183509 62 0.0 0.0 0.48 2.80 2.40 92 1009.4
20260501183022 62 0.0 0.0 0.60 2.79 2.39 92 1009.9
20260501182507 62 0.0 0.0 0.64 2.79 2.39 92 1009.2
20260501182010 62 0.0 0.0 0.65 2.79 2.39 92 1008.3
20260501181509 62 0.0 0.0 0.66 2.78 2.38 92 1007.9
20260501181005 62 0.0 0.0 0.64 2.76 2.35 92 1008.6
20260501180504 62 0.0 0.0 0.48 2.60 2.20 92 1009.3
20260501180011 62 0.0 0.0 0.35 2.47 2.07 92 1009.5
20260501175508 62 0.0 0.0 0.34 2.46 2.06 92 1008.9
20260501175012 62 0.0 0.0 0.31 2.43 2.03 92 1009.2
20260501174514 62 0.0 0.0 0.30 2.42 2.02 92 1009.2
20260501174010 62 0.0 0.0 0.30 2.41 2.01 92 1009.3
20260501173507 62 0.0 0.0 0.21 2.32 1.92 92 1009.6